Date,TemperatureHighF,TemperatureAvgF,TemperatureLowF,DewpointHighF,DewpointAvgF,DewpointLowF,HumidityHigh,HumidityAvg,HumidityLow,PressureMaxIn,PressureMinIn,WindSpeedMaxMPH,WindSpeedAvgMPH,GustSpeedMaxMPH,PrecipitationSumIn
2013-3-1,77,61,50,53,50,46,95,69,38,30.32,30.12,0,0,0,3.03
2013-3-2,71,60,52,52,50,48,90,71,48,30.14,29.97,0,0,0,3.08
2013-3-3,71,57,51,51,49,45,90,76,49,30.00,29.94,0,0,0,3.19
2013-3-4,64,54,49,49,45,42,87,73,52,30.05,29.94,0,0,0,3.27
2013-3-5,63,52,46,49,43,38,99,71,49,29.97,29.73,0,0,0,3.45
2013-3-6,62,55,49,50,46,40,99,71,50,29.96,29.74,0,0,0,3.78
2013-3-7,62,54,47,48,44,34,85,71,41,29.89,29.75,0,0,0,3.90
2013-3-8,65,55,50,47,45,42,82,68,48,29.94,29.72,0,0,0,4.01
2013-3-9,70,57,47,47,44,39,86,64,39,30.20,29.94,0,0,0,4.08
2013-3-10,75,57,48,50,45,36,88,67,34,30.24,30.15,0,0,0,4.11
2013-3-11,75,58,49,51,47,39,89,69,29,30.16,30.00,1,0,0,4.19
2013-3-12,78,58,48,52,50,47,95,77,38,30.06,29.96,0,0,0,4.29
2013-3-13,77,58,48,54,50,46,99,77,41,30.06,29.95,0,0,0,4.41
2013-3-14,68,56,49,53,49,47,95,79,52,30.07,29.97,0,0,0,4.48
2013-3-15,71,58,50,52,50,47,94,76,47,30.03,29.94,0,0,0,4.53
2013-3-16,70,58,49,53,49,45,99,75,47,30.02,29.92,0,0,0,4.61
2013-3-17,71,57,50,48,45,37,85,66,32,30.05,29.94,0,0,0,4.72
2013-3-18,69,56,48,50,47,44,91,73,46,30.03,29.93,0,0,0,4.77
2013-3-19,69,56,50,51,47,40,88,71,40,30.04,29.95,0,0,0,4.84
2013-3-20,63,57,53,58,52,47,94,84,67,30.04,29.95,0,0,0,4.96
2013-3-21,70,56,48,51,45,40,88,67,38,30.03,29.91,0,0,0,4.98
2013-3-22,75,57,47,46,40,25,87,57,23,30.02,29.91,0,0,0,5.02
2013-3-23,74,58,48,46,40,28,84,56,22,30.04,29.94,0,0,0,5.16
2013-3-24,68,56,48,50,47,45,91,74,46,29.99,29.88,0,0,0,5.22
2013-3-25,63,55,49,49,47,44,88,74,53,29.94,29.82,0,0,0,5.27
2013-3-26,68,58,52,50,48,44,86,70,51,29.91,29.84,0,0,0,5.30
2013-3-27,68,58,52,57,53,48,94,81,65,29.91,29.84,0,0,0,5.43
2013-3-28,69,62,55,57,55,51,96,79,59,29.99,29.89,0,0,0,5.45
2013-3-29,82,62,53,56,53,49,98,76,37,29.98,29.91,0,0,0,5.47
2013-3-30,74,61,53,58,54,48,99,81,50,29.97,29.87,0,0,0,5.53
2013-3-31,68,59,56,60,56,53,99,87,59,29.96,29.89,0,0,0,5.81